Time,TemperatureF,DewpointF,PressureIn,WindDirection,WindDirectionDegrees,WindSpeedMPH,WindSpeedGustMPH,Humidity,HourlyPrecipIn,Conditions,Clouds,dailyrainin,SolarRadiationWatts/m^2,SoftwareType,DateUTC
2013-10-23 00:00:00,60.0,54.5,30.05,NNW,338,0.0,0.0,82,0.00,,,0.00,0.00,VWS V14.00,2013-10-23 05:00:00,
2013-10-23 00:15:00,59.2,53.7,30.04,NNW,338,0.0,0.0,82,0.00,,,0.00,0.00,VWS V14.00,2013-10-23 05:15:00,
2013-10-23 00:30:00,58.6,53.8,30.05,NNW,338,0.0,0.0,84,0.00,,,0.00,0.00,VWS V14.00,2013-10-23 05:30:00,
2013-10-23 00:45:00,58.6,54.8,30.05,NNW,338,0.0,2.0,87,0.00,,,0.00,0.00,VWS V14.00,2013-10-23 05:45:00,
2013-10-23 01:00:00,59.3,55.4,30.05,NNW,338,0.0,3.0,87,0.00,,,0.00,0.00,VWS V14.00,2013-10-23 06:00:00,
2013-10-23 01:15:00,59.3,55.1,30.05,NNW,338,0.0,1.0,86,0.00,,,0.00,0.00,VWS V14.00,2013-10-23 06:15:00,
2013-10-23 01:30:00,58.9,54.7,30.05,NNW,338,0.0,2.0,86,0.00,,,0.00,0.00,VWS V14.00,2013-10-23 06:30:00,
2013-10-23 01:45:00,58.4,54.5,30.05,NNW,338,0.0,0.0,87,0.00,,,0.00,0.00,VWS V14.00,2013-10-23 06:45:00,
2013-10-23 02:00:00,57.8,54.0,30.05,NNW,338,0.0,1.0,87,0.00,,,0.00,0.00,VWS V14.00,2013-10-23 07:00:00,
2013-10-23 02:15:00,57.6,53.8,30.05,NNW,338,0.0,1.0,87,0.00,,,0.00,0.00,VWS V14.00,2013-10-23 07:15:00,
2013-10-23 02:30:00,57.6,53.8,30.04,NNW,338,0.0,0.0,87,0.00,,,0.00,0.00,VWS V14.00,2013-10-23 07:30:00,
2013-10-23 02:45:00,57.3,53.8,30.04,NNW,338,0.0,1.0,88,0.00,,,0.00,0.00,VWS V14.00,2013-10-23 07:45:00,
2013-10-23 03:00:00,57.1,53.6,30.04,NNW,338,0.0,0.0,88,0.00,,,0.00,0.00,VWS V14.00,2013-10-23 08:00:00,
2013-10-23 03:15:00,57.1,53.6,30.04,NNW,338,0.0,0.0,88,0.00,,,0.00,0.00,VWS V14.00,2013-10-23 08:15:00,
2013-10-23 03:30:00,57.1,53.6,30.03,NNW,338,0.0,0.0,88,0.00,,,0.00,0.00,VWS V14.00,2013-10-23 08:30:00,
2013-10-23 03:45:00,56.6,53.1,30.03,NNW,338,0.0,0.0,88,0.00,,,0.00,0.00,VWS V14.00,2013-10-23 08:45:00,
2013-10-23 04:00:00,56.2,52.4,30.03,NNW,338,0.0,0.0,87,0.00,,,0.00,0.00,VWS V14.00,2013-10-23 09:00:00,
2013-10-23 04:15:00,56.0,52.5,30.03,NNW,338,0.0,0.0,88,0.00,,,0.00,0.00,VWS V14.00,2013-10-23 09:15:00,
2013-10-23 04:30:00,55.7,52.5,30.03,NNW,338,0.0,0.0,89,0.00,,,0.00,0.00,VWS V14.00,2013-10-23 09:30:00,
2013-10-23 04:45:00,55.4,52.2,30.03,NNW,338,0.0,0.0,89,0.00,,,0.00,0.00,VWS V14.00,2013-10-23 09:45:00,
2013-10-23 05:00:00,55.0,52.1,30.03,NNW,338,0.0,0.0,90,0.00,,,0.00,0.00,VWS V14.00,2013-10-23 10:00:00,
2013-10-23 05:15:00,55.0,52.1,30.04,NNW,338,0.0,0.0,90,0.00,,,0.00,0.00,VWS V14.00,2013-10-23 10:15:00,
2013-10-23 05:33:00,54.7,52.1,30.04,NNW,338,0.0,0.0,91,0.00,,,0.00,0.00,VWS V14.00,2013-10-23 10:33:00,
2013-10-23 05:45:00,54.4,51.8,30.05,North,0,0.0,0.0,91,0.00,,,0.00,0.00,VWS V14.00,2013-10-23 10:45:00,
2013-10-23 06:00:00,54.0,51.4,30.06,North,0,0.0,0.0,91,0.00,,,0.00,0.00,VWS V14.00,2013-10-23 11:00:00,
2013-10-23 06:15:00,53.9,51.0,30.06,North,0,0.0,0.0,90,0.00,,,0.00,0.00,VWS V14.00,2013-10-23 11:15:00,
2013-10-23 06:30:00,53.7,50.8,30.06,North,0,0.0,0.0,90,0.00,,,0.00,0.00,VWS V14.00,2013-10-23 11:30:00,
2013-10-23 06:45:00,54.1,51.2,30.07,North,0,0.0,0.0,90,0.00,,,0.00,0.00,VWS V14.00,2013-10-23 11:45:00,
2013-10-23 07:00:00,54.1,51.2,30.08,North,0,0.0,0.0,90,0.00,,,0.00,0.00,VWS V14.00,2013-10-23 12:00:00,
2013-10-23 07:15:00,54.4,51.8,30.08,NNW,338,0.0,1.0,91,0.00,,,0.00,0.00,VWS V14.00,2013-10-23 12:15:00,
2013-10-23 07:30:00,54.0,51.4,30.08,NNW,338,0.0,1.0,91,0.00,,,0.00,0.00,VWS V14.00,2013-10-23 12:30:00,
2013-10-23 07:45:00,54.1,51.2,30.09,NNW,338,0.0,1.0,90,0.00,,,0.00,7.00,VWS V14.00,2013-10-23 12:45:00,
2013-10-23 08:00:00,55.1,51.9,30.09,NNW,338,0.0,2.0,89,0.00,,,0.00,22.00,VWS V14.00,2013-10-23 13:00:00,
2013-10-23 08:15:00,56.8,52.7,30.10,NNW,338,0.0,1.0,86,0.00,,,0.00,78.00,VWS V14.00,2013-10-23 13:15:00,
2013-10-23 08:30:00,59.1,53.3,30.10,NNW,338,0.0,3.0,81,0.00,,,0.00,134.00,VWS V14.00,2013-10-23 13:30:00,
2013-10-23 08:45:00,61.3,54.4,30.11,NNW,338,0.0,2.0,78,0.00,,,0.00,201.00,VWS V14.00,2013-10-23 13:45:00,
2013-10-23 09:00:00,62.9,55.2,30.11,North,0,0.0,3.0,76,0.00,,,0.00,268.00,VWS V14.00,2013-10-23 14:00:00,
2013-10-23 09:15:00,64.9,56.4,30.11,North,0,0.0,4.0,74,0.00,,,0.00,330.00,VWS V14.00,2013-10-23 14:15:00,
2013-10-23 09:30:00,66.3,56.2,30.12,NNW,338,0.0,3.0,70,0.00,,,0.00,385.00,VWS V14.00,2013-10-23 14:30:00,
2013-10-23 09:45:00,67.3,57.2,30.12,NNW,338,1.0,4.0,70,0.00,,,0.00,435.00,VWS V14.00,2013-10-23 14:45:00,
2013-10-23 10:00:00,68.9,58.3,30.12,NNW,338,0.0,4.0,69,0.00,,,0.00,484.00,VWS V14.00,2013-10-23 15:00:00,
2013-10-23 10:15:00,70.2,58.7,30.12,NW,315,0.0,4.0,67,0.00,,,0.00,531.00,VWS V14.00,2013-10-23 15:15:00,
2013-10-23 10:30:00,71.1,58.8,30.12,NW,315,1.0,5.0,65,0.00,,,0.00,575.00,VWS V14.00,2013-10-23 15:30:00,
2013-10-23 10:45:00,72.1,59.7,30.12,NW,315,1.0,5.0,65,0.00,,,0.00,614.00,VWS V14.00,2013-10-23 15:45:00,
2013-10-23 11:00:00,73.0,60.1,30.12,NW,315,1.0,4.0,64,0.00,,,0.00,651.00,VWS V14.00,2013-10-23 16:00:00,
2013-10-23 11:15:00,74.1,59.3,30.12,NW,315,1.0,3.0,60,0.00,,,0.00,683.00,VWS V14.00,2013-10-23 16:15:00,
2013-10-23 11:30:00,75.2,60.4,30.12,WNW,292,1.0,4.0,60,0.00,,,0.00,712.00,VWS V14.00,2013-10-23 16:30:00,
2013-10-23 11:45:00,76.1,59.3,30.12,WNW,292,1.0,4.0,56,0.00,,,0.00,739.00,VWS V14.00,2013-10-23 16:45:00,
2013-10-23 12:00:00,75.6,56.8,30.12,West,270,1.0,5.0,52,0.00,,,0.00,760.00,VWS V14.00,2013-10-23 17:00:00,
2013-10-23 12:15:00,75.7,57.4,30.11,SSW,202,1.0,5.0,53,0.00,,,0.00,778.00,VWS V14.00,2013-10-23 17:15:00,
2013-10-23 12:30:00,76.5,53.0,30.10,SSW,202,1.0,5.0,44,0.00,,,0.00,791.00,VWS V14.00,2013-10-23 17:30:00,
2013-10-23 12:45:00,77.8,52.2,30.10,West,270,1.0,5.0,41,0.00,,,0.00,799.00,VWS V14.00,2013-10-23 17:45:00,
2013-10-23 13:00:00,78.4,52.1,30.09,West,270,1.0,5.0,40,0.00,,,0.00,804.00,VWS V14.00,2013-10-23 18:00:00,
2013-10-23 13:15:00,78.4,50.0,30.09,WSW,248,1.0,5.0,37,0.00,,,0.00,804.00,VWS V14.00,2013-10-23 18:15:00,
2013-10-23 13:30:00,78.9,52.5,30.08,West,270,1.0,6.0,40,0.00,,,0.00,800.00,VWS V14.00,2013-10-23 18:30:00,
2013-10-23 13:45:00,79.6,55.2,30.07,SSW,202,0.0,4.0,43,0.00,,,0.00,792.00,VWS V14.00,2013-10-23 18:45:00,
2013-10-23 14:15:00,80.5,53.3,30.05,WSW,249,1.0,5.0,39,0.00,,,0.00,754.00,VWS V14.00,2013-10-23 19:15:00,
2013-10-23 14:30:00,80.8,51.4,30.05,SW,225,1.0,5.0,36,0.00,,,0.00,742.00,VWS V14.00,2013-10-23 19:30:00,
2013-10-23 14:45:00,80.9,51.5,30.04,WSW,248,1.0,7.0,36,0.00,,,0.00,718.00,VWS V14.00,2013-10-23 19:45:00,
2013-10-23 15:00:00,81.0,54.4,30.04,WSW,248,1.0,6.0,40,0.00,,,0.00,691.00,VWS V14.00,2013-10-23 20:00:00,
2013-10-23 15:15:00,81.4,55.5,30.04,SSW,202,1.0,5.0,41,0.00,,,0.00,659.00,VWS V14.00,2013-10-23 20:15:00,
2013-10-23 15:30:00,81.3,51.8,30.03,SW,225,2.0,6.0,36,0.00,,,0.00,624.00,VWS V14.00,2013-10-23 20:30:00,
2013-10-23 15:45:00,81.1,52.4,30.03,SSW,202,2.0,6.0,37,0.00,,,0.00,586.00,VWS V14.00,2013-10-23 20:45:00,
2013-10-23 16:00:00,81.6,52.1,30.03,SW,225,2.0,7.0,36,0.00,,,0.00,545.00,VWS V14.00,2013-10-23 21:00:00,
2013-10-23 16:15:00,81.0,53.0,30.03,SSW,202,2.0,7.0,38,0.00,,,0.00,499.00,VWS V14.00,2013-10-23 21:15:00,
2013-10-23 16:30:00,80.5,52.6,30.04,SSW,202,2.0,6.0,38,0.00,,,0.00,452.00,VWS V14.00,2013-10-23 21:30:00,
2013-10-23 16:45:00,80.4,52.5,30.04,SSW,202,2.0,7.0,38,0.00,,,0.00,401.00,VWS V14.00,2013-10-23 21:45:00,
2013-10-23 17:00:00,80.3,52.4,30.04,SSW,202,2.0,6.0,38,0.00,,,0.00,347.00,VWS V14.00,2013-10-23 22:00:00,
2013-10-23 17:15:00,79.9,52.8,30.04,SSW,202,2.0,6.0,39,0.00,,,0.00,296.00,VWS V14.00,2013-10-23 22:15:00,
2013-10-23 17:30:00,79.4,55.0,30.03,SSW,202,2.0,5.0,43,0.00,,,0.00,227.00,VWS V14.00,2013-10-23 22:30:00,
2013-10-23 17:45:00,78.7,55.0,30.03,SSW,202,1.0,4.0,44,0.00,,,0.00,105.00,VWS V14.00,2013-10-23 22:45:00,
2013-10-23 18:00:00,78.1,56.8,30.03,SSW,202,0.0,2.0,48,0.00,,,0.00,92.00,VWS V14.00,2013-10-23 23:00:00,
2013-10-23 18:15:00,76.5,56.5,30.03,SSW,202,0.0,2.0,50,0.00,,,0.00,51.00,VWS V14.00,2013-10-23 23:15:00,
2013-10-23 18:30:00,74.7,58.0,30.03,South,180,0.0,2.0,56,0.00,,,0.00,19.00,VWS V14.00,2013-10-23 23:30:00,
2013-10-23 18:45:00,73.3,58.1,30.04,South,180,0.0,2.0,59,0.00,,,0.00,10.00,VWS V14.00,2013-10-23 23:45:00,
2013-10-23 19:00:00,72.1,57.9,30.04,South,180,0.0,0.0,61,0.00,,,0.00,1.00,VWS V14.00,2013-10-24 00:00:00,
2013-10-23 19:15:00,70.7,57.9,30.04,South,180,0.0,1.0,64,0.00,,,0.00,0.00,VWS V14.00,2013-10-24 00:15:00,
2013-10-23 19:30:00,70.3,59.2,30.04,South,180,0.0,2.0,68,0.00,,,0.00,0.00,VWS V14.00,2013-10-24 00:30:00,
2013-10-23 19:45:00,70.2,58.3,30.05,South,180,0.0,3.0,66,0.00,,,0.00,0.00,VWS V14.00,2013-10-24 00:45:00,
2013-10-23 20:00:00,69.7,59.1,30.05,South,180,0.0,2.0,69,0.00,,,0.00,0.00,VWS V14.00,2013-10-24 01:00:00,
2013-10-23 20:15:00,68.7,59.3,30.06,South,180,0.0,0.0,72,0.00,,,0.00,0.00,VWS V14.00,2013-10-24 01:15:00,
2013-10-23 20:30:00,67.7,59.1,30.06,South,180,0.0,0.0,74,0.00,,,0.00,0.00,VWS V14.00,2013-10-24 01:30:00,
2013-10-23 20:45:00,66.7,58.5,30.06,South,180,0.0,0.0,75,0.00,,,0.00,0.00,VWS V14.00,2013-10-24 01:45:00,
2013-10-23 21:00:00,66.1,57.6,30.07,South,180,0.0,0.0,74,0.00,,,0.00,0.00,VWS V14.00,2013-10-24 02:00:00,
2013-10-23 21:15:00,66.3,57.4,30.07,South,180,0.0,0.0,73,0.00,,,0.00,0.00,VWS V14.00,2013-10-24 02:15:00,
2013-10-23 21:30:00,65.6,57.1,30.07,South,180,0.0,0.0,74,0.00,,,0.00,0.00,VWS V14.00,2013-10-24 02:30:00,
2013-10-23 21:45:00,65.0,56.9,30.07,South,180,0.0,0.0,75,0.00,,,0.00,0.00,VWS V14.00,2013-10-24 02:45:00,
2013-10-23 22:00:00,64.4,56.7,30.07,South,180,0.0,0.0,76,0.00,,,0.00,0.00,VWS V14.00,2013-10-24 03:00:00,
2013-10-23 22:15:00,63.9,56.6,30.07,South,180,0.0,0.0,77,0.00,,,0.00,0.00,VWS V14.00,2013-10-24 03:15:00,
2013-10-23 22:30:00,63.5,56.9,30.08,South,180,0.0,0.0,79,0.00,,,0.00,0.00,VWS V14.00,2013-10-24 03:30:00,
2013-10-23 22:45:00,63.3,57.0,30.08,South,180,0.0,0.0,80,0.00,,,0.00,0.00,VWS V14.00,2013-10-24 03:45:00,
2013-10-23 23:00:00,63.0,57.1,30.08,South,180,0.0,0.0,81,0.00,,,0.00,0.00,VWS V14.00,2013-10-24 04:00:00,
2013-10-23 23:15:00,62.7,57.5,30.08,South,180,0.0,0.0,83,0.00,,,0.00,0.00,VWS V14.00,2013-10-24 04:15:00,
2013-10-23 23:30:00,62.6,57.4,30.08,South,180,0.0,0.0,83,0.00,,,0.00,0.00,VWS V14.00,2013-10-24 04:30:00,
2013-10-23 23:45:00,62.4,57.5,30.08,South,180,0.0,0.0,84,0.00,,,0.00,0.00,VWS V14.00,2013-10-24 04:45:00,